Precipitable_Water
1.41 1.33 1.41 1.40 1.43 1.45 1.45 1.35 1.24 0.93 1.00 1.24 1.26 1.48 1.51 1.47 1.62 1.68 1.64 1.69 1.76 1.72 1.62 1.55 1.49 1.45 1.47 1.45 1.51 1.57 1.57 1.44 1.29 1.23 1.23 1.27 1.31 1.35
1.55 1.51 1.34 1.43 1.47 1.44 1.56 1.70 1.40 1.20 0.94 1.20 1.36 1.46 1.57 1.55 1.72 1.72 1.64 1.70 1.96 1.63 1.63 1.50 1.44 1.48 1.50 1.51 1.50 1.51 1.59 1.57 1.42 1.28 1.20 1.21 1.28 1.29
1.39 1.24 1.27 1.44 1.42 1.41 1.42 1.46 1.41 1.44 1.20 1.32 1.54 1.59 1.61 1.58 1.60 1.88 1.71 1.64 1.65 1.64 1.69 1.61 1.54 1.51 1.54 1.59 1.60 1.60 1.52 1.56 1.44 1.34 1.21 1.15 1.24 1.31
1.61 1.52 1.43 1.46 1.45 1.49 1.52 1.49 1.49 1.49 1.34 1.27 1.53 1.55 1.60 1.68 1.75 1.80 1.80 1.65 1.63 1.60 1.57 1.45 1.46 1.51 1.51 1.57 1.54 1.62 1.55 1.56 1.54 1.42 1.27 1.14 1.19 1.28
1.91 1.70 1.63 1.62 1.58 1.64 1.61 1.64 1.69 1.75 1.70 1.52 1.44 1.67 1.74 1.74 1.69 1.74 1.63 1.55 1.46 1.51 1.55 1.56 1.54 1.53 1.63 1.69 1.62 1.61 1.65 1.63 1.64 1.53 1.41 1.39 1.34 1.30
2.04 1.96 1.89 1.77 1.77 1.68 1.77 1.74 1.76 1.69 1.60 1.47 1.42 1.45 1.52 1.57 1.56 1.43 1.33 1.49 1.47 1.58 1.64 1.70 1.67 1.67 1.73 1.89 1.85 1.83 1.86 1.84 1.83 1.69 1.62 1.60 1.61 1.58
1.91 2.05 2.03 2.02 2.06 1.89 1.92 1.80 1.61 1.46 1.44 1.40 1.40 1.45 1.50 1.54 1.46 1.53 1.49 1.51 1.59 1.64 1.62 1.69 1.73 1.73 1.82 1.90 1.96 2.06 2.10 2.04 2.12 2.05 1.92 1.78 1.66 1.70
1.70 1.79 1.86 1.92 1.95 2.01 1.92 1.81 1.74 1.61 1.51 1.46 1.50 1.51 1.54 1.50 1.52 1.50 1.55 1.50 1.39 1.66 1.56 1.58 1.79 1.75 1.86 1.89 1.97 2.01 1.89 1.96 2.03 2.13 2.27 2.14 1.85 1.80
1.74 1.72 1.68 1.67 1.72 1.85 1.94 1.89 1.81 1.78 1.82 1.72 1.52 1.41 1.41 1.48 1.50 1.49 1.57 1.58 1.55 1.54 1.53 1.46 1.62 1.65 1.82 1.87 1.81 1.81 1.77 1.80 1.92 2.08 2.15 2.11 2.10 2.13
1.73 1.66 1.55 1.56 1.67 1.76 1.71 1.69 1.60 1.58 1.57 1.54 1.52 1.54 1.60 1.67 1.68 1.65 1.64 1.61 1.68 1.64 1.54 1.31 1.45 1.40 1.81 1.73 1.57 1.51 1.65 1.73 1.73 1.80 1.86 1.92 1.99 2.06
1.67 1.62 1.57 1.57 1.66 1.62 1.55 1.49 1.44 1.46 1.57 1.56 1.59 1.63 1.67 1.72 1.70 1.64 1.47 1.38 1.40 1.49 1.43 1.40 1.30 1.21 1.39 1.42 1.41 1.26 1.29 1.46 1.48 1.54 1.63 1.70 1.71 1.77
1.65 1.63 1.60 1.57 1.53 1.51 1.43 1.39 1.36 1.41 1.48 1.46 1.49 1.52 1.52 1.54 1.52 1.43 1.33 1.18 1.19 1.10 1.12 1.19 1.09 1.08 0.97 1.22 1.00 0.92 0.97 0.99 1.03 1.11 1.21 1.22 1.19 1.20
1.56 1.57 1.55 1.58 1.55 1.53 1.52 1.48 1.47 1.52 1.47 1.46 1.42 1.35 1.31 1.27 1.24 1.29 1.30 1.21 1.02 0.91 0.97 1.09 0.94 0.94 0.90 0.80 0.82 0.81 0.84 0.76 0.73 0.81 0.90 0.94 0.98 0.99
1.63 1.61 1.59 1.56 1.51 1.50 1.47 1.45 1.43 1.36 1.25 1.08 1.03 1.03 0.97 0.96 0.93 0.93 0.96 0.93 0.87 0.80 0.84 0.87 0.79 0.76 0.70 0.63 0.61 0.64 0.67 0.69 0.66 0.63 0.62 0.63 0.64 0.61
1.52 1.52 1.48 1.50 1.48 1.43 1.42 1.34 1.17 0.96 0.80 0.66 0.60 0.58 0.63 0.68 0.71 0.70 0.65 0.62 0.57 0.57 0.58 0.56 0.49 0.45 0.44 0.45 0.46 0.47 0.41 0.45 0.51 0.48 0.46 0.46 0.46 0.46
1.21 1.13 1.10 1.06 0.98 0.90 0.83 0.77 0.70 0.64 0.59 0.55 0.54 0.56 0.57 0.54 0.47 0.44 0.38 0.41 0.38 0.37 0.41 0.42 0.36 0.32 0.31 0.37 0.35 0.32 0.34 0.32 0.37 0.36 0.35 0.34 0.36 0.39
1.02 0.94 0.84 0.77 0.70 0.66 0.64 0.62 0.61 0.59 0.52 0.51 0.48 0.46 0.44 0.42 0.40 0.41 0.38 0.34 0.31 0.30 0.30 0.33 0.34 0.33 0.35 0.33 0.29 0.32 0.30 0.33 0.35 0.33 0.31 0.29 0.32 0.35
0.86 0.76 0.67 0.61 0.57 0.58 0.57 0.55 0.56 0.55 0.53 0.50 0.47 0.45 0.41 0.39 0.36 0.36 0.34 0.32 0.29 0.29 0.30 0.31 0.31 0.29 0.30 0.32 0.40 0.32 0.35 0.34 0.35 0.35 0.36 0.32 0.30 0.36
0.75 0.71 0.65 0.61 0.61 0.61 0.55 0.53 0.51 0.52 0.52 0.49 0.47 0.44 0.42 0.39 0.35 0.32 0.31 0.30 0.30 0.31 0.32 0.33 0.32 0.29 0.24 0.23 0.32 0.40 0.32 0.34 0.34 0.33 0.35 0.35 0.33 0.35
0.77 0.73 0.69 0.66 0.63 0.60 0.57 0.54 0.54 0.52 0.49 0.47 0.46 0.44 0.42 0.38 0.34 0.32 0.32 0.32 0.32 0.33 0.34 0.36 0.35 0.35 0.32 0.30 0.31 0.36 0.44 0.39 0.37 0.35 0.36 0.39 0.42 0.43
0.74 0.69 0.70 0.70 0.69 0.67 0.63 0.59 0.56 0.51 0.48 0.46 0.43 0.40 0.39 0.39 0.37 0.35 0.34 0.36 0.37 0.37 0.36 0.37 0.41 0.46 0.44 0.43 0.35 0.35 0.39 0.46 0.47 0.43 0.42 0.39 0.36 0.35
0.75 0.71 0.71 0.68 0.66 0.64 0.62 0.57 0.51 0.48 0.46 0.45 0.43 0.41 0.41 0.41 0.40 0.40 0.40 0.40 0.41 0.41 0.41 0.44 0.46 0.45 0.42 0.38 0.36 0.38 0.40 0.43 0.47 0.49 0.52 0.51 0.45 0.38
0.80 0.81 0.78 0.67 0.63 0.60 0.57 0.53 0.52 0.50 0.48 0.47 0.44 0.43 0.43 0.42 0.43 0.44 0.45 0.45 0.46 0.46 0.45 0.44 0.44 0.44 0.43 0.43 0.43 0.42 0.43 0.44 0.45 0.42 0.41 0.48 0.50 0.52
Wind_Speed
6 6 5 4 4 3 3 2 2 4 5 5 5 5 6 6 6 7 7 7 9 11 10 9 8 9 9 10 10 11 12 11 10 8 7 6 5 5
7 6 6 6 5 4 4 4 4 4 4 4 4 5 6 6 6 7 6 8 8 10 10 10 8 8 9 9 9 9 10 12 11 9 8 6 5 5
6 6 6 6 7 7 6 5 5 5 5 6 4 5 4 5 4 6 6 7 8 9 9 10 8 9 10 10 10 9 8 10 11 10 8 7 6 6
7 6 6 6 6 6 7 7 7 6 5 4 5 5 4 5 5 6 6 7 9 9 9 10 8 9 10 10 11 8 7 9 11 11 9 8 6 6
8 8 8 7 6 6 6 6 6 6 6 6 6 6 6 6 7 8 8 9 9 8 9 9 8 8 8 9 10 9 8 9 10 11 10 9 8 7
9 8 9 9 9 9 8 8 8 8 8 7 7 7 7 8 8 9 9 9 8 9 8 8 8 7 8 9 9 9 9 10 11 11 10 10 10 9
11 11 11 11 10 11 10 11 10 9 9 9 9 9 9 9 10 10 9 9 8 9 8 8 9 8 9 10 11 10 10 12 12 12 11 11 10 11
13 12 12 12 12 11 11 11 11 11 11 11 11 11 11 11 10 10 10 10 10 10 10 10 10 9 10 10 11 10 12 13 14 14 13 12 12 12
15 14 14 13 13 13 12 11 11 12 12 13 13 13 13 13 13 13 12 12 12 13 12 12 12 11 11 11 12 12 13 14 14 13 13 14 13 12
18 18 17 16 16 15 14 14 14 14 14 15 15 15 15 16 16 16 16 17 16 16 15 14 15 14 14 14 14 15 15 15 15 15 15 15 14 13
19 19 19 18 17 17 17 17 16 16 15 13 12 12 14 15 17 17 18 19 19 18 18 17 17 17 16 16 17 17 17 16 16 16 17 17 17 16
19 19 19 19 19 18 18 18 17 17 17 17 16 16 16 17 17 17 17 16 17 16 18 18 19 18 18 18 19 19 18 18 19 19 19 19 19 19
19 21 20 20 20 19 19 19 19 18 18 18 17 16 16 16 16 16 16 16 15 15 16 15 16 17 18 20 20 20 19 20 20 20 21 21 21 21
19 18 18 17 18 18 18 17 16 16 16 15 15 15 15 15 16 16 15 14 14 14 16 16 17 18 19 19 20 22 21 21 22 22 23 24 24 25
17 16 16 16 15 15 16 16 16 16 16 16 16 17 17 17 17 17 17 16 16 16 18 18 19 20 20 20 21 22 24 24 24 25 26 27 27 28
17 17 16 16 16 16 17 18 18 19 19 18 18 18 18 18 17 18 19 20 19 20 20 20 22 22 22 23 24 25 26 26 29 29 29 30 31 31
21 20 20 19 19 19 19 19 20 20 19 19 19 19 19 19 19 20 20 21 21 23 23 24 24 25 25 26 27 29 30 31 32 33 34 34 34 35
25 25 24 23 23 22 22 22 22 22 21 21 21 21 21 21 21 22 22 23 24 25 26 27 28 28 29 30 31 33 34 35 36 37 37 37 37 38
28 27 26 26 26 25 25 24 24 24 23 23 23 24 24 24 24 25 25 26 26 27 28 29 30 31 32 32 34 36 37 38 39 39 40 39 41 40
29 29 28 28 28 28 27 27 27 27 26 26 26 27 27 27 27 28 28 28 29 30 31 32 32 33 33 34 35 37 38 39 40 41 42 42 43 45
30 29 29 30 30 30 30 30 30 29 29 29 29 29 29 29 30 30 30 30 31 31 32 33 34 35 35 36 36 37 38 39 41 42 43 44 45 46
30 32 31 31 31 31 32 31 31 31 31 31 31 31 32 32 32 32 31 31 32 33 34 34 35 35 36 36 37 39 40 40 41 43 44 45 47 48
32 32 32 32 33 33 33 32 32 32 32 32 33 33 33 32 31 31 32 32 33 33 34 34 35 35 36 37 38 40 41 42 43 43 43 46 48 50
Wind_Direction
236 245 241 253 264 272 291 298 314 317 318 324 325 336 335 340 344 350 347 349 352 7 10 15 21 24 25 24 21 21 23 22 20 18 16 17 20 19
238 245 248 252 260 269 273 281 305 305 332 334 344 331 343 349 352 5 7 6 18 25 24 18 18 13 11 9 5 3 9 12 13 12 11 10 11 9
248 247 250 257 260 265 272 275 298 303 305 319 327 344 352 359 352 360 4 11 11 10 9 10 9 7 4 0 355 353 357 6 9 8 4 2 0 357
248 249 254 257 262 265 268 274 281 292 296 297 308 322 325 336 340 333 338 343 343 343 345 347 349 352 353 358 353 351 4 5 5 3 0 357 350 345
251 250 255 256 261 265 267 274 280 286 293 294 296 298 305 315 318 323 318 325 330 336 338 343 348 351 360 3 10 9 3 0 359 358 357 355 349 338
255 256 254 258 261 262 266 270 278 283 286 290 292 294 298 306 310 315 316 321 322 329 331 336 340 345 348 347 346 350 351 350 347 346 345 346 344 340
255 257 261 263 262 265 265 270 273 274 278 283 286 288 293 300 306 309 308 311 307 324 320 326 323 326 329 332 334 334 337 339 338 338 331 327 327 328
254 255 260 262 264 266 268 268 269 273 276 277 280 285 289 295 299 304 307 305 300 308 308 312 316 314 316 327 334 332 332 331 331 332 334 331 320 319
253 254 260 264 263 263 262 264 273 278 277 277 278 280 284 286 288 293 295 295 294 306 300 296 303 300 307 314 322 322 325 327 328 327 333 337 332 326
254 255 259 261 262 259 259 264 272 276 279 280 279 281 281 283 283 284 288 290 287 291 297 288 293 290 286 299 309 313 314 317 319 321 321 323 325 322
254 256 258 259 262 261 262 264 267 274 276 280 281 286 288 288 290 287 288 291 286 284 290 281 288 288 283 290 299 306 306 305 309 314 316 316 315 311
254 257 257 259 259 262 262 263 267 271 273 274 278 284 287 290 292 291 292 296 290 286 289 278 284 287 284 283 294 300 299 300 301 304 307 310 311 305
258 257 259 259 259 261 261 264 265 269 272 275 278 281 285 289 292 293 296 297 293 292 295 285 290 287 285 287 290 298 299 299 301 301 303 304 305 305
259 256 256 258 259 260 259 260 263 267 271 273 277 280 285 288 291 293 293 294 296 296 297 297 292 292 290 289 289 295 297 296 301 300 301 301 301 302
254 255 254 256 256 256 258 259 263 265 269 273 276 279 282 284 286 286 287 288 292 295 297 297 295 294 293 291 290 294 295 293 300 298 300 299 299 300
254 254 255 256 258 260 261 263 265 267 269 271 274 276 279 282 285 285 287 284 288 291 295 297 297 294 293 291 293 294 296 293 296 297 297 297 297 297
255 256 257 258 260 262 263 265 266 268 268 270 272 275 278 281 285 286 287 288 289 291 293 295 297 296 293 293 292 295 296 294 295 296 296 295 294 295
256 256 257 260 261 262 264 266 267 267 268 269 272 274 276 280 282 285 287 288 289 291 292 294 295 294 293 294 295 296 296 296 296 296 295 294 293 294
258 257 258 260 261 262 263 265 266 266 267 269 272 275 277 280 282 284 285 286 288 290 292 293 294 295 294 293 293 298 298 297 297 297 295 294 294 295
260 257 258 260 262 263 264 265 266 267 268 270 273 275 277 279 281 284 285 286 287 289 291 293 294 295 295 294 293 295 297 298 297 297 296 296 295 295
256 258 259 261 263 264 264 265 265 266 268 271 273 275 277 279 281 283 284 286 287 288 290 293 294 295 295 295 295 296 298 299 300 298 298 297 297 297
257 259 261 262 264 264 265 265 265 267 269 271 273 275 277 279 281 283 284 285 288 290 290 291 293 294 295 297 296 297 297 299 300 300 299 299 299 297
259 260 262 264 265 265 265 265 266 266 268 271 273 275 276 278 280 281 283 286 288 289 290 291 292 294 295 296 297 297 299 299 299 300 301 302 301 299